When you browse on this site, cookies collect data to enhance your experience and personalize the content and advertising you see.
Visit our Privacy Policy to learn more. By continuing to use the site, you agree to this use of cookies and data.
  • In Latvia
  • List of Countries
  • For 7 days
  • Water Temperature
  • Weather Map
  • Weather Widgets
  • user-avatar
    Login

    Hourly Weather San Miguel de Tucumán

    Today, 17 November, Sunday

    Time Temperature Precipitation Wind Pressure Humidity
    00:00 +28°C° 0 mm 2 mps 716 mmHg 43%
    01:00 +28°C° 0 mm 2 mps 716 mmHg 44%
    02:00 +27°C° 0 mm 2 mps 716 mmHg 46%
    03:00 +26°C° 0 mm 2 mps 716 mmHg 48%
    04:00 +26°C° 0 mm 1 mps 716 mmHg 50%
    05:00 +25°C° 0 mm 1 mps 716 mmHg 51%
    06:00 +27°C° 0 mm 1 mps 717 mmHg 48%
    07:00 +28°C° 0 mm 1 mps 717 mmHg 44%
    08:00 +29°C° 0 mm 1 mps 718 mmHg 41%
    09:00 +32°C° 0 mm 2 mps 718 mmHg 36%
    10:00 +35°C° 0 mm 2 mps 718 mmHg 31%
    11:00 +37°C° 0 mm 2 mps 718 mmHg 26%
    12:00 +38°C° 0 mm 3 mps 717 mmHg 25%
    13:00 +39°C° 0 mm 3 mps 717 mmHg 23%
    14:00 +41°C° 0 mm 4 mps 717 mmHg 22%
    15:00 +40°C° 0 mm 4 mps 716 mmHg 23%
    16:00 +40°C° 0 mm 4 mps 716 mmHg 24%
    17:00 +38°C° 0 mm 4 mps 716 mmHg 25%
    18:00 +36°C° 0 mm 4 mps 716 mmHg 29%
    19:00 +34°C° 0 mm 3 mps 716 mmHg 33%
    20:00 +31°C° 0 mm 3 mps 717 mmHg 37%
    21:00 +30°C° 0 mm 3 mps 717 mmHg 38%
    22:00 +29°C° 0 mm 3 mps 717 mmHg 39%
    23:00 +29°C° 0 mm 3 mps 717 mmHg 39%

    Tomorrow, 18 November, Monday

    Time Temperature Precipitation Wind Pressure Humidity
    00:00 +28°C° 0 mm 2 mps 716 mmHg 41%
    01:00 +27°C° 0 mm 2 mps 716 mmHg 43%
    02:00 +27°C° 0 mm 1 mps 716 mmHg 45%
    03:00 +26°C° 0 mm 1 mps 716 mmHg 46%
    04:00 +26°C° 0 mm 1 mps 717 mmHg 47%
    05:00 +23°C° 0 mm 0 mps 717 mmHg 48%
    06:00 +27°C° 0 mm 1 mps 718 mmHg 44%
    07:00 +29°C° 0 mm 1 mps 718 mmHg 40%
    08:00 +31°C° 0 mm 1 mps 719 mmHg 36%
    09:00 +33°C° 0 mm 1 mps 720 mmHg 33%
    10:00 +35°C° 0 mm 1 mps 720 mmHg 29%
    11:00 +38°C° 0 mm 2 mps 720 mmHg 25%
    12:00 +39°C° 0 mm 2 mps 720 mmHg 24%
    13:00 +40°C° 0 mm 2 mps 719 mmHg 22%
    14:00 +41°C° 0 mm 2 mps 719 mmHg 21%
    15:00 +40°C° 0 mm 2 mps 718 mmHg 21%
    16:00 +40°C° 0 mm 3 mps 718 mmHg 21%
    17:00 +40°C° 0 mm 3 mps 717 mmHg 22%
    18:00 +37°C° 0 mm 2 mps 718 mmHg 26%
    19:00 +35°C° 0 mm 2 mps 718 mmHg 30%
    20:00 +31°C° 0 mm 1 mps 718 mmHg 35%
    21:00 +30°C° 0 mm 1 mps 719 mmHg 36%
    22:00 +30°C° 0 mm 1 mps 720 mmHg 38%
    23:00 +29°C° 0 mm 1 mps 720 mmHg 39%

    Day after tomorrow, 19 November, Tuesday

    Time Temperature Precipitation Wind Pressure Humidity
    00:00 +28°C° 0 mm 1 mps 720 mmHg 42%
    01:00 +28°C° 0 mm 1 mps 719 mmHg 44%
    02:00 +27°C° 0 mm 1 mps 719 mmHg 47%
    03:00 +27°C° 0 mm 1 mps 719 mmHg 47%
    04:00 +26°C° 0 mm 1 mps 719 mmHg 48%
    05:00 +26°C° 0 mm 1 mps 719 mmHg 49%
    06:00 +28°C° 0 mm 1 mps 720 mmHg 44%
    07:00 +29°C° 0 mm 1 mps 720 mmHg 39%
    08:00 +31°C° 0 mm 1 mps 720 mmHg 35%
    09:00 +35°C° 0 mm 2 mps 720 mmHg 30%
    10:00 +38°C° 0 mm 3 mps 720 mmHg 26%
    11:00 +40°C° 0 mm 3 mps 720 mmHg 21%
    12:00 +42°C° 0 mm 4 mps 719 mmHg 20%
    13:00 +43°C° 0 mm 4 mps 718 mmHg 18%
    14:00 +45°C° 0 mm 5 mps 717 mmHg 16%
    15:00 +43°C° 0 mm 5 mps 716 mmHg 17%
    16:00 +43°C° 0 mm 5 mps 716 mmHg 18%
    17:00 +42°C° 0 mm 5 mps 715 mmHg 18%
    18:00 +40°C° 0 mm 4 mps 716 mmHg 22%
    19:00 +37°C° 0 mm 4 mps 716 mmHg 25%
    20:00 +34°C° 0 mm 3 mps 717 mmHg 28%
    21:00 +34°C° 0 mm 2 mps 717 mmHg 29%
    22:00 +32°C° 0 mm 2 mps 718 mmHg 29%
    23:00 +32°C° 0 mm 1 mps 718 mmHg 30%

    20 November, Wednesday

    Time Temperature Precipitation Wind Pressure Humidity
    00:00 +31°C° 0 mm 1 mps 718 mmHg 32%
    01:00 +30°C° 0 mm 2 mps 717 mmHg 34%
    02:00 +30°C° 0 mm 2 mps 717 mmHg 36%
    03:00 +29°C° 0 mm 2 mps 717 mmHg 38%
    04:00 +28°C° 0 mm 2 mps 717 mmHg 39%
    05:00 +27°C° 0 mm 2 mps 717 mmHg 41%
    06:00 +29°C° 0 mm 2 mps 717 mmHg 37%
    07:00 +31°C° 0 mm 1 mps 717 mmHg 33%
    08:00 +33°C° 0 mm 1 mps 717 mmHg 30%
    09:00 +37°C° 0 mm 2 mps 717 mmHg 26%
    10:00 +39°C° 0 mm 2 mps 717 mmHg 22%
    11:00 +42°C° 0 mm 2 mps 717 mmHg 18%
    12:00 +44°C° 0 mm 3 mps 716 mmHg 17%
    13:00 +45°C° 0 mm 3 mps 716 mmHg 16%
    14:00 +47°C° 0 mm 4 mps 715 mmHg 15%
    15:00 +45°C° 0 mm 4 mps 714 mmHg 16%
    16:00 +45°C° 0 mm 4 mps 714 mmHg 16%
    17:00 +44°C° 0 mm 4 mps 713 mmHg 17%
    18:00 +41°C° 0 mm 4 mps 713 mmHg 22%
    19:00 +37°C° 0 mm 3 mps 713 mmHg 26%
    20:00 +34°C° 0 mm 3 mps 714 mmHg 31%
    21:00 +33°C° 0 mm 3 mps 714 mmHg 31%
    22:00 +33°C° 0 mm 3 mps 714 mmHg 30%
    23:00 +33°C° 0 mm 3 mps 714 mmHg 30%

    21 November, Thursday

    Time Temperature Precipitation Wind Pressure Humidity
    00:00 +31°C° 0 mm 3 mps 714 mmHg 31%
    01:00 +31°C° 0 mm 2 mps 714 mmHg 32%
    02:00 +30°C° 0 mm 2 mps 713 mmHg 33%
    03:00 +29°C° 0 mm 2 mps 713 mmHg 35%
    04:00 +29°C° 0 mm 1 mps 713 mmHg 36%
    05:00 +28°C° 0 mm 1 mps 713 mmHg 38%
    06:00 +30°C° 0 mm 1 mps 714 mmHg 34%
    07:00 +33°C° 0 mm 1 mps 715 mmHg 31%
    08:00 +35°C° 0 mm 1 mps 715 mmHg 27%
    09:00 +39°C° 0 mm 1 mps 715 mmHg 24%
    10:00 +41°C° 0 mm 2 mps 715 mmHg 21%
    11:00 +43°C° 0 mm 2 mps 715 mmHg 19%
    12:00 +45°C° 0 mm 2 mps 715 mmHg 18%
    13:00 +46°C° 0 mm 2 mps 714 mmHg 17%
    14:00 +47°C° 0 mm 3 mps 714 mmHg 16%
    15:00 +45°C° 0.1 mm 3 mps 713 mmHg 19%
    16:00 +43°C° 0.1 mm 3 mps 713 mmHg 22%
    17:00 +42°C° 0.1 mm 3 mps 712 mmHg 24%
    18:00 +37°C° 0.6 mm 3 mps 713 mmHg 35%
    19:00 +34°C° 0.6 mm 3 mps 713 mmHg 45%
    20:00 +29°C° 0.6 mm 4 mps 714 mmHg 56%
    21:00 +29°C° 0.3 mm 4 mps 715 mmHg 60%
    22:00 +28°C° 0.3 mm 4 mps 716 mmHg 64%
    23:00 +27°C° 0.3 mm 3 mps 716 mmHg 68%

    22 November, Friday

    Time Temperature Precipitation Wind Pressure Humidity
    00:00 +26°C° 0.3 mm 3 mps 716 mmHg 72%
    01:00 +26°C° 0.3 mm 2 mps 716 mmHg 75%
    02:00 +25°C° 0.3 mm 1 mps 716 mmHg 79%
    03:00 +25°C° 0.1 mm 1 mps 716 mmHg 81%
    04:00 +25°C° 0.1 mm 2 mps 716 mmHg 82%
    05:00 +24°C° 0.1 mm 2 mps 716 mmHg 84%
    06:00 +26°C° 0 mm 2 mps 717 mmHg 77%
    07:00 +27°C° 0 mm 2 mps 717 mmHg 70%
    08:00 +29°C° 0 mm 2 mps 718 mmHg 63%
    09:00 +30°C° 0 mm 3 mps 718 mmHg 59%
    10:00 +31°C° 0 mm 3 mps 718 mmHg 56%
    11:00 +33°C° 0 mm 3 mps 718 mmHg 53%
    12:00 +33°C° 0.1 mm 3 mps 717 mmHg 52%
    13:00 +34°C° 0.1 mm 2 mps 717 mmHg 51%
    14:00 +34°C° 0.1 mm 2 mps 716 mmHg 50%
    15:00 +34°C° 0.2 mm 2 mps 715 mmHg 50%
    16:00 +34°C° 0.2 mm 2 mps 715 mmHg 50%
    17:00 +34°C° 0.2 mm 2 mps 714 mmHg 50%
    18:00 +31°C° 0.2 mm 1 mps 715 mmHg 57%
    19:00 +30°C° 0.2 mm 1 mps 715 mmHg 64%
    20:00 +28°C° 0.2 mm 1 mps 716 mmHg 71%
    21:00 +27°C° 2.1 mm 1 mps 716 mmHg 76%
    22:00 +27°C° 2.1 mm 1 mps 717 mmHg 82%
    23:00 +26°C° 2.1 mm 1 mps 717 mmHg 87%
    Show more